Regional Weather Roundup
Issued by NWS Sterling, VA

Home | Current Version | Previous Version | Graphics & Text | Print | Product List | Glossary On
Versions: 1 2 3 4 5 6 7 8 9 10 11 12 13 14 15 16 17 18 19 20 21 22 23 24 25 26
000
ASUS41 KLWX 171611
RWRLWX

REGIONAL WEATHER ROUNDUP
NATIONAL WEATHER SERVICE BALTIMORE MD/WASHINGTON DC
1100 AM EST SAT FEB 17 2018

Note: "FAIR" indicates few or no clouds below 12,000 feet
with no significant weather and/or obstructions to visibility.
 TC=TEMPERATURE CELSIUS

 * =Non NWS site. Station does not report precipitation (e.g. rain,
    snow, etc.), thunder, or fog.

DCZ001-MDZ009-015-VAZ040>042-051-053>054-171700-
WASHINGTON METRO

CITY           SKY/WX    TMP DP  RH WIND       PRES   REMARKS
WASHINGTON NAT PTSUNNY   42  25  50 E9        30.36F
DULLES         PTSUNNY   40  24  53 SE8       30.33F WCI  34
ANDREWS AFB    FAIR      40  24  53 SE8       30.33F WCI  34
FT BELVOIR     FAIR      42  23  47 SE8       30.35F
QUANTICO       FAIR      42  29  59 S10       30.36F
COLLEGE PARK*  FAIR      39  21  48 SE8       30.35F WCI  33
LEESBURG*      FAIR      39  27  60 SE8G17    30.33F WCI  34
MANASSAS*      FAIR      41  24  51 S10       30.35F WCI  35
GAITHERSBURG*  FAIR      38  23  55 S10       30.32F WCI  31

$$

MDZ006>007-011-014-171700-
BALTIMORE METRO

CITY           SKY/WX    TMP DP  RH WIND       PRES   REMARKS
BWI AIRPORT    PTSUNNY   39  23  52 E12       30.35F WCI  32
MD SCIENCE CTR   N/A     40  24  53 MISG      30.40F
MARTIN STATE   MOSUNNY   37  27  65 E10       30.40F WCI  30
ANNAPOLIS      FAIR      40  29  64 SE10      30.37F WCI  33
FORT MEADE*    FAIR      37  23  56 SE8       30.37F WCI  31

$$

MDZ012-015-019>023-171700-
MARYLAND EASTERN SHORE

CITY           SKY/WX    TMP DP  RH WIND       PRES   REMARKS
OCEAN CITY     FAIR      41  28  60 E10       30.38F WCI  35
SALISBURY      FAIR      42  26  53 NE13      30.37F
BAY BRIDGE AP* FAIR      39  25  56 SE12      30.37F WCI  32
CAMBRIDGE*     SUNNY     41  27  56 E10       30.37F WCI  35
EASTON*        SUNNY     41  25  52 SE8       30.41F

$$

MDZ017>025-171700-
SOUTHERN MARYLAND

CITY           SKY/WX    TMP DP  RH WIND       PRES   REMARKS
PATUXENT RIVER FAIR      40  29  64 SE12      30.37F WCI  33
ST INIGOES     FAIR      42  29  59 E8        30.37F
LEONARDTOWN*   FAIR      39  27  60 SE5       30.37F

$$

MDZ003>005-171700-
NORTH CENTRAL MARYLAND

CITY           SKY/WX    TMP DP  RH WIND       PRES   REMARKS
FREDERICK*     SUNNY     37  19  48 SE6       30.37F WCI  33
HAGERSTOWN APT FAIR      36  21  54 S8        30.30F WCI  30
WESTMINSTER*   FAIR      37  25  60 SE12      30.30F WCI  30

$$

MDZ501>502-171700-
WESTERN MARYLAND

CITY           SKY/WX    TMP DP  RH WIND       PRES   REMARKS
OAKLAND*         N/A     27  23  86 SE16G24   30.10F WCI  14
CUMBERLAND*    FAIR      36  27  69 E6        30.32F WCI  31

$$

VAZ025>031-171700-
SHENANDOAH VALLEY

CITY           SKY/WX    TMP DP  RH WIND       PRES   REMARKS
WINCHESTER*    PTSUNNY   34  23  64 SE10      30.32F WCI  26
FRONT ROYAL*   CLOUDY    36  27  69 CALM      30.30S
LURAY*         CLOUDY    36  28  75 CALM      30.29S
NEW MARKET*      N/A     36  27  68 W6        30.28S WCI  32
STAUNTON*      CLOUDY    34  25  69 S9        30.30S WCI  27
WAYNESBORO*    CLOUDY    33  26  73 SE8       30.28R WCI  27

$$

WVZ021-048>050-054>055-171700-
EASTERN WEST VIRGINIA PANHANDLE

CITY           SKY/WX    TMP DP  RH WIND       PRES   REMARKS
MARTINSBURG    FAIR      36  23  59 SE9       30.30F WCI  29
PETERSBURG*    CLOUDY    33  25  72 CALM      30.25F

$$

VAZ036>039-050-171700-
CENTRAL FOOTHILLS

CITY           SKY/WX    TMP DP  RH WIND       PRES   REMARKS
CHARLOTTESVILL CLOUDY    39  23  52 NE6       30.32F WCI  35
CULPEPER*      CLOUDY    40  23  50 S3        30.35F
ORANGE*        CLOUDY    37  27  65 CALM      30.34S
GORDONSVILLE*  CLOUDY    37  26  63 NE5       30.34F WCI  34
WARRENTON*     PTSUNNY   41  20  44 SE9       30.33F WCI  35

$$

VAZ055>057-171700-
NORTH AND CENTRAL PIEDMONT

CITY           SKY/WX    TMP DP  RH WIND       PRES   REMARKS
FREDERICKSBRG* FAIR      41  27  55 E10       30.34F
STAFFORD*      FAIR      43  27  52 SE5       30.38F

$$

NCZ024-NYZ072-PAZ021-071-VAZ022-071-171700-
OTHER REGIONAL OBSERVATIONS

CITY           SKY/WX    TMP DP  RH WIND       PRES   REMARKS
NEW YORK CITY  FAIR      35  17  47 VRB5      30.40F WCI  31
PHILADELPHIA   PTSUNNY   37  19  48 E8        30.38F WCI  31
PITTSBURGH     CLOUDY    30  20  66 E8        30.15F WCI  22
ROANOKE        LGT RAIN  38  30  73 SE8       30.31S WCI  32
RICHMOND       PTSUNNY   43  30  60 E12       30.32F
RALEIGH        CLOUDY    45  34  65 E10       30.28F

$$

ANZ530>537-171700-
MARINE OBSERVATIONS

STATION/POSITION TIME  TEMP    WIND        PRES
                       AIR SEA DIR/SP/G
                 (UTC) (F)     (DEG/KT/KT) (MB)
THOMAS PT LIGHT  1600   37 38  120/  6/  7   N/A
BALT KEY BRIDGE  1548   35     120/  9/ 11 1028.6F
COVE POINT       1548   38     170/  7/  8 1029.2F
LEWISETTA        1548   38 44  110/  7/ 10 1028.7F
SOLOMONS ISLAND  1548   38 40  110/  9/ 11 1028.1F

$$





USA.gov is the U.S. government's official web portal to all federal, state and local government web resources and services.